Flag for U.S.A. Weather past 2 weeks in Kalispell, Montana, U.S.A.

Now
50 °F

Overcast.


Feels Like: 50 °F
Forecast: 48 / 77 °F
Wind: No wind

Location: Kalispell - Glacier Park International

Current Time: Sep 23, 2014 at 5:36:47 AM

Latest Report: Sep 23, 2014 at 4:55 AM


Visibility: 10 mi

Pressure: 29.94 "Hg

Humidity: 89%

Dew point: 47 °F

Location of KalispellLocation

Historic Weather in Kalispell — Graph

°F

Kalispell temperature yesterday

Maximum temperature yesterday: 81 °F (at 4:55 PM)
Minimum temperature yesterday: 43 °F (at 4:55 AM)
Average temperature yesterday: 60 °F

Past Weeks' High & Low Weather Summary

 TemperatureHumidityPressure
High85 °F (Sep 21, 5:55 PM)100% (Sep 14, 6:55 AM)30.55 "Hg (Sep 14, 6:55 AM)
Low23 °F (Sep 12, 5:55 AM)20% (Sep 15, 5:55 PM)29.66 "Hg (Sep 18, 4:55 AM)
Average53 °F62%30.04 "Hg
* Reported Sep 8 3:55 AM — Sep 23 3:55 AM, Kalispell, Weather by CustomWeather, © 2014

Note: Actual official high and low records may vary slightly from our data, if they occured in-between our weather recording intervals... More about our weather records

Advertising

Kalispell weather history for previous 24 hours

 ConditionsComfort  
Time TempWeatherWind HumidityBarometerVisibility
3:55 AM
Sep 23
46 °FClear.5 mph89%29.93 "Hg10 mi
2:55 AM48 °FClear.No wind86%29.93 "Hg10 mi
1:55 AM52 °FPassing clouds.No wind83%29.92 "Hg10 mi
12:55 AM50 °FPassing clouds.No wind86%29.92 "Hg10 mi
11:55 PM
Sep 22
51 °FClear.No wind86%29.91 "Hg10 mi
10:55 PM55 °FClear.3 mph74%29.90 "Hg10 mi
9:55 PM56 °FClear.5 mph77%29.89 "Hg10 mi
8:55 PM61 °FClear.No wind65%29.90 "Hg10 mi
7:55 PM65 °FSunny.5 mph54%29.89 "Hg10 mi
6:55 PM74 °FSunny.3 mph36%29.87 "Hg10 mi
5:55 PM81 °FSunny.6 mph28%29.87 "Hg10 mi
4:55 PM81 °FSunny.9 mph28%29.88 "Hg10 mi
3:55 PM79 °FSunny.7 mph29%29.88 "Hg10 mi
2:55 PM80 °FSunny.8 mph28%29.89 "Hg10 mi
1:55 PM76 °FSunny.3 mph33%29.90 "Hg10 mi
12:55 PM74 °FSunny.No wind37%29.93 "Hg10 mi
11:55 AM69 °FSunny.5 mph44%29.94 "Hg10 mi
10:55 AM66 °FSunny.3 mph49%29.95 "Hg10 mi
9:55 AM60 °FSunny.3 mph62%29.97 "Hg10 mi
8:55 AM51 °FSunny.No wind86%29.96 "Hg10 mi
7:55 AM44 °FClear.3 mph85%29.96 "Hg10 mi
6:55 AM44 °FClear.5 mph89%29.93 "Hg10 mi
5:55 AM44 °FClear.6 mph93%29.91 "Hg10 mi
Weather by CustomWeather, © 2014

See weather overviewHow to use our weather pages